GFSNW_sfc_dewp_186.txt.gz
Dewpoint
49 50 50 50 50 48 46 41 35 43 48 37 37 32 29 31 26 28 26 27 24 22 21 20 19 18 16 13 18 16 16 18 20 18 16 17 23 27 26 26 27 31 30 27
49 49 49 49 48 46 42 39 38 44 44 31 31 30 27 28 26 25 25 24 25 22 21 18 18 18 19 18 21 19 19 18 11 7 7 9 16 20 24 31 32 27 25 28
49 48 48 49 46 44 43 37 32 36 38 37 31 29 28 27 30 27 27 24 25 24 24 22 23 20 21 26 26 31 30 24 16 12 8 9 18 30 27 31 26 23 24 21
48 48 48 47 45 44 40 37 33 31 30 33 34 32 29 26 26 27 27 25 25 23 23 19 19 24 23 22 27 29 29 27 23 18 17 16 15 15 15 18 18 19 17 15
47 47 47 46 44 43 39 33 34 32 27 27 27 27 25 23 22 21 19 21 20 20 21 19 20 20 20 20 22 23 26 27 25 19 17 13 12 12 13 13 12 10 13 14
46 46 46 46 44 43 36 39 35 32 28 27 27 23 20 18 18 17 17 17 18 17 18 19 21 23 24 25 23 23 25 26 27 21 15 14 18 16 15 21 16 16 17 17
45 45 45 45 42 40 39 36 34 32 25 25 23 20 19 17 17 17 16 18 18 17 17 20 20 18 18 19 18 22 22 21 23 21 21 16 16 12 12 15 17 18 18 20
45 45 45 45 40 39 37 37 34 33 26 21 20 22 23 21 20 18 19 19 19 22 24 23 20 19 21 19 18 18 22 21 20 20 16 14 11 14 18 18 18 18 18 19
45 44 44 44 42 40 37 37 36 36 30 23 22 21 20 21 22 21 21 23 26 27 25 23 18 12 11 8 6 16 17 24 21 18 16 14 12 10 14 18 15 15 18 21
42 42 42 42 43 40 40 39 39 34 31 25 23 23 22 23 23 23 22 24 25 30 26 22 16 17 15 17 10 8 18 23 21 21 18 15 12 16 18 16 14 18 23 25
41 41 41 41 42 41 39 40 40 34 32 26 27 25 25 25 26 24 24 25 29 28 24 22 23 20 17 18 15 14 14 15 22 23 20 18 16 17 15 16 20 24 26 26
40 40 40 41 41 41 39 36 39 40 36 30 31 30 29 28 27 28 33 31 28 30 27 26 27 21 23 19 16 20 18 15 14 17 24 29 27 20 24 23 23 25 26 27
39 40 40 40 40 41 38 37 40 38 34 31 29 27 29 32 32 31 30 28 28 30 35 31 30 24 25 20 16 21 21 27 22 19 19 20 23 24 25 24 23 27 26 18
40 39 39 39 40 40 40 37 39 38 34 28 25 28 29 30 32 34 33 30 30 34 36 30 28 22 25 20 18 17 17 22 24 25 23 20 20 23 25 22 19 18 23 24
39 38 38 38 38 39 42 40 39 39 34 27 28 28 27 26 27 28 31 32 30 31 29 28 25 22 22 19 18 20 18 20 22 23 22 22 19 19 25 23 20 20 20 19
39 39 38 39 41 40 36 33 35 38 38 30 25 27 25 26 27 28 28 30 30 31 27 25 24 25 25 21 16 16 16 18 21 20 20 24 25 23 21 22 21 16 18 17
38 38 40 40 38 39 34 25 32 37 39 32 24 23 23 26 26 28 30 30 28 28 27 26 22 21 28 24 17 17 18 18 20 21 22 23 23 26 23 20 19 22 20 19
38 38 38 39 39 38 35 34 39 39 33 31 22 22 26 26 30 30 30 30 29 29 27 23 21 19 23 21 16 16 16 18 20 21 21 23 24 24 23 23 22 22 21 21
39 39 38 38 37 35 32 36 38 41 33 27 24 19 20 27 29 32 32 32 27 29 28 24 22 20 22 17 17 18 20 22 27 28 29 28 29 29 26 21 20 20 20 20
37 36 37 32 34 35 37 36 33 32 34 31 24 20 22 25 23 26 30 30 25 22 22 25 25 19 20 22 26 26 32 32 29 28 28 28 28 29 30 25 21 22 22 23
36 35 33 35 36 36 34 30 28 27 24 25 24 21 21 28 24 24 24 24 24 19 22 22 20 22 25 31 34 34 34 33 28 30 31 31 30 30 27 25 25 26 27 27
34 34 35 35 33 31 26 23 24 22 18 24 25 28 24 28 28 26 25 21 22 16 27 25 19 24 28 34 34 34 32 31 27 27 28 31 33 33 32 32 32 32 37 36
37 32 29 28 29 23 20 19 21 23 27 28 27 27 30 30 30 28 26 23 20 27 26 20 21 26 34 33 30 28 27 27 26 26 28 31 32 33 34 34 35 35 36 36
30 25 20 23 22 22 21 20 20 25 28 31 31 30 29 30 27 27 23 23 26 22 19 19 28 29 30 29 28 27 27 27 26 28 30 30 30 31 32 33 34 34 34 34
29 27 21 23 26 29 29 31 30 30 34 34 32 31 30 28 27 25 23 24 20 20 21 28 34 32 30 29 28 27 28 29 29 30 31 31 30 30 31 32 33 34 33 33
32 29 27 30 29 32 33 33 33 34 34 35 34 30 25 24 24 22 20 18 18 24 30 33 31 29 27 27 29 28 29 30 30 30 30 31 30 29 29 30 32 31 32 32
30 28 32 33 32 32 34 33 32 36 34 30 31 27 23 26 22 19 22 24 27 32 33 33 29 28 28 29 28 28 28 28 28 29 29 30 32 31 28 27 27 29 30 30

GFSNW_sfc_dewp_189.txt.gz
Dewpoint
50 50 50 50 50 48 45 40 36 44 49 38 38 33 25 26 23 25 23 24 21 18 17 16 16 16 16 15 16 15 17 19 17 15 14 12 16 21 26 29 27 28 27 23
50 50 50 49 48 47 39 40 38 43 45 33 33 27 25 25 23 22 21 22 20 21 21 20 19 19 18 15 17 17 26 23 17 13 11 10 8 8 11 19 29 27 24 26
49 49 49 49 47 46 39 38 32 37 39 37 30 28 27 26 26 24 25 23 22 22 22 21 23 22 20 20 27 29 27 22 19 17 13 12 13 11 16 23 28 27 28 27
49 48 49 48 46 44 39 39 34 33 31 32 31 29 27 24 26 25 25 22 22 20 25 21 18 17 16 19 24 22 26 23 19 17 16 14 15 8 8 20 28 26 22 18
48 48 48 46 45 43 39 35 35 32 27 29 29 29 28 23 23 22 20 23 19 21 23 20 19 19 18 18 18 18 20 23 21 17 16 15 16 17 18 15 13 7 8 9
47 48 46 45 44 43 39 39 35 30 29 26 28 25 21 18 18 19 18 18 18 17 18 19 19 19 19 19 20 20 21 23 20 18 16 17 22 20 14 19 10 10 13 13
46 46 46 45 43 42 38 33 30 31 27 25 23 18 18 16 15 17 15 16 16 16 17 18 18 17 16 16 14 15 15 16 18 20 19 15 15 19 16 12 12 13 11 14
46 46 45 44 42 39 36 35 31 34 28 23 21 20 21 19 18 18 18 18 18 21 20 21 19 18 18 18 14 15 17 18 19 16 19 17 13 12 12 9 12 10 10 15
45 45 45 43 40 39 36 35 35 36 32 23 19 20 19 21 22 20 19 20 23 25 23 23 18 11 7 8 13 12 13 17 20 16 15 13 13 7 18 20 13 18 17 15
44 44 44 43 41 39 37 35 38 33 35 24 22 22 23 22 22 24 22 22 24 27 25 22 16 12 10 14 11 12 15 23 22 17 15 12 10 9 11 22 15 17 17 16
43 43 43 43 42 40 41 39 39 35 35 26 26 25 24 23 25 26 25 25 27 28 25 21 19 16 16 18 12 13 15 17 19 23 20 17 21 13 13 22 23 21 22 20
42 41 41 42 43 41 40 35 39 38 39 30 30 29 27 25 24 28 33 34 29 31 28 28 27 23 25 17 15 15 17 21 23 23 23 32 28 27 28 33 27 25 29 22
40 40 40 41 42 41 39 34 36 38 36 32 27 25 28 30 31 31 31 27 29 30 34 31 28 23 21 19 17 17 15 14 17 19 19 21 30 29 26 27 30 23 25 21
40 39 39 40 40 40 39 37 37 37 35 31 25 26 27 28 29 31 32 29 30 34 35 32 29 24 24 22 20 17 16 17 17 17 16 19 22 26 23 22 24 22 23 23
39 39 38 39 40 40 40 42 40 40 35 30 29 28 25 26 28 28 30 30 29 32 32 31 26 24 24 21 19 18 15 17 20 24 18 19 20 23 26 24 24 21 21 20
39 38 39 40 41 41 36 33 36 38 38 32 26 25 25 25 26 26 25 26 27 30 27 26 22 23 24 23 16 15 12 15 19 19 19 20 22 22 22 21 20 21 21 18
39 40 41 41 40 41 36 30 33 37 36 33 25 23 23 24 26 27 27 29 26 27 28 25 19 18 24 24 17 17 16 15 17 18 21 23 22 26 24 25 23 21 17 19
38 38 39 39 37 36 32 34 36 37 32 29 24 23 26 26 27 28 27 29 28 32 26 23 19 20 23 24 20 17 14 15 18 19 20 23 25 23 23 22 21 20 19 16
38 39 39 36 37 37 34 37 37 40 35 30 26 19 24 26 26 31 31 31 30 29 30 26 25 23 23 17 17 19 21 23 23 25 28 29 29 28 28 28 28 26 19 19
39 36 37 32 34 35 38 36 34 34 34 32 25 21 26 26 26 28 28 31 25 23 23 23 27 22 26 27 30 32 32 32 34 33 31 31 29 29 30 28 28 28 23 20
34 36 34 33 37 35 34 31 29 29 26 26 24 23 23 27 25 26 26 26 25 21 23 24 23 22 25 26 32 35 36 35 35 33 31 27 29 31 32 31 27 26 25 26
34 33 34 34 32 32 28 26 25 22 23 30 28 30 30 32 32 30 27 21 22 16 28 25 19 25 24 32 36 34 35 31 27 26 26 27 27 30 32 34 33 33 36 35
34 32 30 28 29 25 21 21 21 25 28 29 30 30 32 32 32 30 28 24 21 25 26 21 21 26 34 33 31 30 29 28 27 27 27 28 30 31 32 33 34 36 35 37
30 26 21 24 25 22 21 21 20 27 30 30 34 32 31 32 28 27 25 23 24 22 20 17 28 30 30 30 31 30 29 29 28 28 29 30 31 32 32 32 33 33 34 35
30 27 22 23 26 29 31 32 31 30 34 34 34 34 32 30 28 25 22 23 20 19 21 28 34 33 31 29 29 28 30 29 31 32 32 32 32 32 32 32 32 33 33 35
30 28 27 30 30 33 35 35 35 33 34 35 35 31 28 25 23 20 20 16 16 22 29 33 31 31 30 30 30 31 30 30 30 30 31 30 32 32 31 31 31 32 33 33
29 28 32 34 32 35 36 34 33 36 33 29 31 28 25 27 22 18 21 23 27 33 34 34 32 31 31 30 30 31 28 28 29 28 28 30 32 33 32 28 29 30 32 32

GFSNW_sfc_dewp_192.txt.gz
Dewpoint
50 50 50 49 49 49 49 44 34 46 49 37 38 33 27 29 22 23 21 21 20 17 15 15 13 13 14 15 16 15 18 21 18 14 14 13 13 15 16 23 23 27 28 25
49 49 49 49 49 49 46 39 38 45 45 32 33 28 28 25 22 22 21 20 20 20 17 16 17 17 18 18 19 27 27 21 16 12 13 13 12 12 13 16 20 19 19 20
49 49 50 50 49 49 46 38 32 37 40 38 32 30 27 26 25 23 21 22 23 23 20 20 19 19 19 21 20 29 23 21 20 17 14 14 15 14 15 17 19 19 21 25
49 50 50 49 48 46 43 40 34 34 31 33 31 29 28 23 26 25 23 21 20 20 21 20 19 19 18 18 23 21 22 19 18 16 13 14 13 12 13 16 17 16 17 14
49 49 48 48 46 44 40 35 37 32 31 30 30 30 30 23 22 24 21 21 19 21 24 22 20 19 19 17 17 17 17 19 16 15 13 9 10 11 9 10 11 12 14 16
49 48 47 45 44 43 41 42 35 32 30 31 30 27 24 22 21 22 21 19 19 18 19 19 19 19 18 17 16 17 19 20 16 14 11 12 14 11 11 16 16 18 18 20
48 47 45 44 43 43 39 34 31 34 27 25 26 24 24 19 18 19 16 14 14 13 16 17 17 15 14 14 12 14 15 15 16 15 13 9 11 8 9 12 19 24 24 21
46 45 45 44 42 42 37 35 32 34 29 21 21 21 20 17 16 16 17 17 16 19 18 18 17 17 17 15 13 12 14 16 17 15 14 11 9 8 8 15 20 24 27 27
46 45 44 43 42 41 36 35 35 37 32 26 20 19 18 21 20 18 18 18 21 22 22 21 15 9 7 4 2 9 11 21 20 22 18 12 12 7 6 10 14 19 26 23
45 45 43 42 41 40 38 35 41 30 34 25 22 22 23 20 20 23 25 22 23 24 25 20 15 11 8 8 6 10 16 20 21 22 18 19 15 12 19 12 17 29 33 32
45 44 43 42 41 40 40 36 39 38 35 29 23 23 21 22 24 26 26 25 26 29 23 20 18 15 14 13 12 16 16 18 19 20 19 16 30 28 20 25 30 32 33 32
44 43 43 43 41 40 40 35 38 36 39 33 31 28 27 24 23 27 33 32 28 31 28 26 27 24 25 20 19 18 19 20 20 19 19 23 28 30 30 31 30 30 32 34
42 42 42 43 41 40 40 38 35 34 36 32 26 25 28 29 29 28 31 25 27 28 33 31 27 20 17 17 15 18 17 19 23 16 13 13 18 31 32 30 31 28 30 30
40 40 40 41 41 40 38 38 35 36 35 30 25 24 25 25 28 29 30 28 28 33 34 31 29 23 22 21 19 19 22 20 19 17 16 15 18 27 31 32 29 26 30 32
39 39 39 39 39 39 37 41 37 39 35 29 30 28 25 25 26 25 26 29 29 28 29 29 26 26 26 25 23 23 21 20 21 22 22 20 17 20 22 22 25 23 22 25
39 38 38 39 40 40 35 33 35 35 35 31 25 26 23 23 25 24 25 26 30 29 25 25 24 25 26 24 18 17 14 18 21 20 20 21 23 24 20 20 20 21 23 21
40 41 40 40 41 42 36 32 35 37 35 32 24 22 20 22 22 23 25 26 23 24 26 25 24 22 24 23 18 17 15 15 17 22 25 26 24 27 25 24 22 25 22 22
39 40 39 38 36 34 30 33 35 35 29 30 24 22 26 24 26 27 24 30 31 30 26 24 20 21 23 21 18 18 17 17 22 24 28 28 29 28 26 26 27 27 26 24
38 38 37 37 37 37 34 36 37 35 35 29 26 19 23 31 26 29 32 32 28 28 29 26 25 25 23 20 19 24 27 28 29 29 32 31 32 31 29 28 28 27 27 26
38 35 37 33 34 37 37 36 34 33 33 31 25 21 26 26 27 29 28 32 26 24 25 25 29 23 26 26 28 30 31 33 32 34 31 32 32 32 29 28 29 30 32 29
35 36 34 34 35 31 33 30 27 29 26 27 27 26 24 28 25 26 28 26 25 20 22 25 23 21 25 26 30 31 34 33 33 32 32 28 27 27 28 28 29 31 32 35
33 32 33 33 32 31 26 25 24 23 20 28 29 29 30 33 33 29 27 24 22 14 29 26 19 28 29 33 36 33 32 33 33 31 27 26 26 27 30 32 32 33 34 34
35 33 31 29 28 24 21 19 20 26 27 28 30 31 30 34 31 29 27 23 20 26 25 19 21 29 34 34 30 30 30 30 29 27 26 26 29 31 32 32 32 33 33 34
32 27 22 23 24 22 21 22 23 27 30 31 33 35 31 32 29 26 24 22 23 20 18 17 31 31 31 30 31 30 29 30 28 29 29 29 31 31 32 32 33 32 31 32
30 27 21 22 25 30 32 33 31 30 34 35 35 32 31 30 28 25 21 21 18 18 18 28 35 33 32 31 31 30 30 30 30 31 30 30 31 31 31 32 31 31 32 32
29 27 26 30 30 34 34 35 35 34 35 35 34 28 28 26 24 21 19 15 15 21 30 34 32 32 31 31 30 29 30 30 29 30 29 28 29 30 31 32 30 31 32 33
28 28 32 33 32 34 36 35 34 35 32 28 28 25 25 29 25 20 21 22 30 35 35 35 33 31 30 29 29 29 29 29 29 29 28 29 30 31 32 30 30 31 31 31

GFSNW_sfc_dewp_198.txt.gz
Dewpoint
48 48 54 52 50 49 46 41 32 42 47 35 34 32 35 35 31 32 34 33 30 28 25 21 23 22 23 25 23 23 26 23 17 17 20 19 18 20 21 18 10 22 18 18
48 48 53 51 49 48 43 34 34 43 43 30 31 36 35 32 33 32 29 30 29 27 24 24 23 24 26 26 27 26 24 23 17 12 17 20 19 18 18 21 23 16 14 14
48 51 50 49 48 48 43 34 29 33 37 37 34 33 34 34 33 33 32 30 29 26 22 25 24 23 26 29 29 32 28 23 18 11 16 19 18 18 18 20 17 15 15 15
50 50 49 48 48 48 43 35 32 33 28 31 35 34 35 33 31 28 30 26 25 24 24 23 23 25 21 24 31 27 25 20 21 21 19 17 17 17 17 17 16 15 14 13
49 48 47 46 46 46 40 33 33 36 35 36 34 34 33 31 30 30 27 28 27 27 27 25 22 21 21 21 20 19 20 19 17 14 16 14 12 13 13 12 11 9 9 8
45 46 45 45 45 43 37 39 40 36 35 33 31 31 34 32 28 28 26 27 26 25 27 26 25 23 22 22 20 19 21 21 18 10 11 14 9 10 9 15 11 11 10 11
46 46 45 44 44 43 42 39 38 34 30 31 30 30 30 29 31 31 28 28 24 21 22 22 20 17 17 17 17 19 17 18 17 11 13 -4 8 12 10 10 10 11 11 12
44 45 45 44 44 43 39 39 36 33 29 28 27 30 30 30 33 28 22 21 22 23 21 21 19 18 18 17 14 16 16 16 13 6 10 10 10 13 14 16 20 22 23 26
44 44 44 43 43 42 38 39 39 36 31 28 33 28 27 24 23 21 24 26 25 24 24 19 12 10 12 9 10 16 15 17 15 15 13 7 13 20 22 25 18 27 28 28
44 44 44 44 43 42 38 38 39 33 29 29 26 25 24 27 26 24 25 24 23 25 19 17 16 14 15 11 10 12 16 17 13 13 14 17 22 21 26 16 16 28 31 31
43 44 44 44 43 42 38 36 39 35 31 31 29 28 25 27 26 21 25 23 23 20 11 15 13 17 17 16 16 15 16 12 8 13 8 10 26 22 21 21 26 30 32 32
43 43 43 44 44 43 38 33 37 37 32 31 32 30 30 28 27 28 26 23 24 21 16 14 16 14 14 18 15 19 14 20 17 22 21 30 28 28 26 30 30 32 32 30
43 43 42 43 43 42 38 34 35 33 26 27 25 21 28 28 29 29 25 27 28 26 26 19 16 17 19 11 17 19 18 21 21 22 22 26 28 27 31 30 32 32 33 29
43 42 42 43 42 41 39 36 36 32 28 22 26 29 27 29 28 28 28 28 31 31 28 24 20 19 23 19 19 19 20 20 18 17 18 20 22 23 25 28 32 32 32 31
41 40 41 42 41 39 37 36 36 36 28 22 23 27 26 26 29 28 28 28 27 26 25 23 23 24 22 22 22 19 21 18 19 17 19 21 20 24 30 28 28 27 28 26
41 40 41 41 41 35 31 28 33 35 33 25 17 27 22 25 29 28 27 29 28 28 25 23 25 25 22 17 18 20 20 23 24 22 23 22 21 23 30 30 30 30 29 30
42 41 40 38 35 33 29 29 32 37 33 23 18 19 25 26 25 26 25 25 25 27 26 24 23 22 25 20 17 17 20 21 21 21 23 27 30 29 31 32 32 32 30 29
37 37 36 36 37 37 32 35 37 35 29 28 17 17 21 29 22 20 26 24 25 24 23 24 21 22 24 22 21 21 21 22 28 29 31 32 32 32 31 32 31 30 29 30
37 37 36 31 32 29 31 35 36 34 28 18 19 16 10 28 25 26 25 26 16 26 22 24 24 24 23 23 23 23 25 28 29 31 32 32 31 31 32 32 32 30 29 30
36 35 26 21 31 36 35 30 23 22 25 24 19 23 16 23 23 19 20 24 24 20 24 26 23 23 24 25 25 25 27 29 29 28 28 27 28 30 31 27 27 28 28 25
36 32 31 33 36 30 31 25 20 20 20 23 23 23 21 26 20 21 24 20 24 20 21 23 23 22 26 32 32 30 30 32 32 32 32 32 30 27 27 28 29 32 31 31
32 33 34 33 30 24 20 15 23 24 22 23 23 27 28 27 30 22 23 23 23 18 26 21 18 23 34 33 29 31 30 30 28 28 27 28 28 28 30 30 31 30 30 30
35 30 23 21 21 16 16 10 20 19 25 26 27 25 31 30 30 26 21 16 16 22 9 16 22 31 32 34 33 30 30 29 28 27 27 27 29 29 30 29 28 29 30 30
26 22 10 14 14 21 22 27 24 25 26 24 26 30 28 28 27 25 22 21 21 11 7 16 25 32 33 30 29 28 27 28 26 27 28 28 28 28 28 28 29 30 29 29
24 25 11 18 22 23 25 27 27 27 27 25 22 28 30 28 26 26 24 16 12 16 14 26 30 31 30 27 27 27 27 27 26 28 28 28 28 28 27 28 28 30 28 28
26 24 20 20 19 16 19 23 24 29 28 24 23 23 25 23 26 24 20 19 14 21 28 31 31 29 28 28 28 28 28 28 28 28 28 28 27 27 28 29 29 25 28 28
24 20 21 20 22 23 20 24 25 32 28 21 24 19 19 24 25 24 26 24 27 28 31 31 30 30 29 29 28 27 28 28 28 28 28 27 28 28 27 27 28 25 26 28

GFSNW_sfc_dewp_201.txt.gz
Dewpoint
46 47 48 49 50 52 51 43 36 44 51 39 39 32 35 37 36 38 37 38 38 36 34 30 28 26 23 24 23 18 25 21 17 17 22 20 20 20 21 19 14 21 18 16
46 47 48 48 49 50 46 39 34 43 47 32 32 36 36 36 35 36 37 36 34 31 32 29 28 30 26 26 26 23 24 21 16 12 18 20 19 19 20 22 23 16 11 14
46 47 47 48 49 51 41 35 30 32 35 35 35 33 34 34 36 35 36 36 32 29 30 29 27 28 27 30 28 31 29 23 18 16 15 20 18 19 19 20 15 17 15 15
46 47 47 48 49 50 41 35 31 34 30 30 35 35 35 32 33 36 36 34 31 30 30 28 27 25 24 28 28 25 25 20 21 21 19 17 17 17 18 18 18 16 11 10
46 46 47 48 50 49 39 31 32 35 34 36 35 34 33 31 32 34 34 31 32 30 29 28 29 26 23 22 20 20 21 21 17 15 17 15 13 15 16 16 15 14 13 12
46 47 48 47 49 46 36 40 40 36 35 34 33 32 34 32 31 31 32 30 29 29 28 28 26 27 26 25 21 20 21 21 17 13 12 10 6 8 12 17 12 11 8 8
47 47 47 46 46 45 43 41 40 34 30 33 32 34 33 31 30 29 30 30 28 27 23 22 21 19 18 18 18 21 20 18 16 12 10 -7 5 11 9 10 12 13 11 12
46 45 45 45 45 45 43 41 40 35 31 33 34 33 33 34 31 29 26 23 22 23 24 24 19 19 17 16 16 17 19 18 15 4 7 5 4 12 13 14 17 20 21 26
45 45 45 45 45 44 41 39 38 36 32 30 34 32 33 30 29 26 25 26 27 27 26 21 13 10 8 9 12 17 17 18 15 14 3 2 11 18 22 24 17 26 27 28
44 44 43 43 43 42 39 37 36 35 32 35 32 29 29 28 27 24 25 25 24 26 22 19 15 11 15 9 6 13 16 17 11 12 10 15 20 23 25 17 14 24 28 30
43 43 42 42 41 40 36 35 36 33 31 30 30 28 27 28 28 23 28 25 24 22 16 18 18 17 17 15 15 13 12 11 10 12 6 9 26 25 21 21 24 26 29 31
43 42 42 42 41 40 35 32 35 35 33 31 30 30 30 27 28 27 27 25 24 23 19 19 19 19 18 18 14 19 15 18 16 14 13 21 29 26 27 26 27 28 30 31
42 42 42 42 41 40 36 34 34 31 30 28 26 25 28 29 29 30 26 27 29 27 26 21 20 18 20 14 17 16 18 22 19 20 17 23 24 28 27 28 28 30 30 32
42 42 42 41 41 40 37 35 35 32 30 25 26 29 28 30 29 28 29 30 31 30 28 20 19 19 21 18 16 18 19 20 19 18 17 17 18 21 25 24 27 29 32 33
43 42 42 39 38 37 35 35 35 34 29 25 24 26 27 29 29 29 30 29 28 26 23 20 18 23 21 22 21 19 20 18 18 15 16 19 18 22 25 27 25 27 28 28
40 39 39 39 38 35 27 24 30 35 30 25 18 26 23 28 29 28 28 28 27 26 24 22 24 25 21 16 17 20 20 21 21 18 21 24 24 26 22 22 24 30 30 30
38 37 39 39 37 36 30 25 31 36 30 23 18 19 24 26 26 26 26 26 27 26 25 23 23 23 24 19 16 17 20 21 22 24 24 22 24 27 30 31 32 33 32 30
39 39 39 38 38 35 30 33 37 33 28 26 17 16 21 27 21 20 25 23 24 24 23 23 22 23 24 21 21 20 20 20 22 25 28 30 32 32 32 32 32 31 30 30
38 38 34 33 31 26 28 37 34 32 27 19 18 15 11 26 24 25 24 25 15 24 18 22 22 22 20 21 21 23 24 25 26 28 30 31 30 29 30 31 31 30 30 29
37 34 27 21 29 37 34 27 20 21 23 23 19 22 16 23 22 17 19 19 21 17 23 26 24 22 24 24 25 25 25 26 28 26 26 27 27 30 32 32 29 28 28 28
32 31 29 32 36 29 24 14 17 19 19 22 22 22 20 26 20 21 23 21 24 19 21 21 21 21 25 30 30 31 30 30 30 29 28 28 28 27 27 27 28 29 31 30
32 31 34 31 30 19 15 16 23 23 21 21 21 22 25 26 28 21 23 22 23 18 25 21 16 22 31 32 29 29 29 28 27 27 27 27 27 28 29 29 30 30 29 29
32 27 20 19 23 10 14 12 19 15 23 23 28 28 26 30 30 25 21 17 15 22 8 15 21 27 30 30 30 30 28 28 27 26 25 28 28 29 29 28 28 29 29 29
27 20 8 11 11 19 21 22 21 24 25 23 27 28 28 29 24 24 19 21 20 9 9 16 26 31 30 30 28 27 26 27 27 27 27 28 28 28 28 28 29 28 27 29
25 22 8 16 21 22 26 23 25 26 25 23 20 29 28 27 25 25 23 18 12 15 13 26 29 30 29 29 28 27 27 27 27 28 28 27 27 27 27 28 29 29 27 27
23 25 21 18 18 12 16 23 21 27 26 23 23 24 25 23 25 23 18 18 13 19 23 30 31 29 29 28 28 28 28 28 28 29 28 28 27 27 27 28 28 28 25 26
22 21 19 19 19 17 18 22 23 29 23 19 23 20 18 21 22 22 24 19 25 27 29 29 28 30 30 29 28 28 28 28 28 28 28 27 28 28 24 23 25 25 27 25